886  
ASUS43 KFGF 231610  
RWRFGF  
PRAIRIE TO PINES WEATHER ROUNDUP  
NATIONAL WEATHER SERVICE EASTERN NORTH DAKOTA/GRAND FORKS ND  
1100 AM CDT SUN SEP 23 2018  
 
**SATELLITE DATA USED TO AUGMENT SKY COVER AT AUTOMATED STATIONS**  
***** WEATHER ACROSS EASTERN NORTH DAKOTA *****  
 
CITY SKY/WX TMP DP RH WIND PRES REMARKS
 
GRAND FORKS CLOUDY 45 43 93 NE15 30.06F  
GRAND FRKS AFB CLOUDY 45 42 89 NE15 30.06F  
DEVILS LAKE CLOUDY 40 38 93 E16G25 30.06S  
FARGO FAIR 57 51 80 E16G24 29.98F  
WAHPETON ARPT FAIR 59 48 67 E10 29.95F  

 
 
***** WEATHER ACROSS CENTRAL AND WESTERN NORTH DAKOTA *****  
 
CITY SKY/WX TMP DP RH WIND PRES REMARKS
 
BISMARCK CLOUDY 43 41 93 NE13 29.97R FOG  
MINOT CLOUDY 39 36 89 E14 30.04R  
JAMESTOWN CLOUDY 45 43 93 NE13 29.96F  
MINOT AFB CLOUDY 38 35 90 E13 30.04R  
GARRISON N/A 39 38 96 E13G21 29.99S  
WILLISTON CLOUDY 40 36 86 E12 30.01F  
DICKINSON FOG 40 39 97 NE10 29.94F VSB 1  
HETTINGER CLOUDY 41 41 100 NE10 29.94S FOG  

 
 
***** OTHER AIRPORT OBSERVATIONS IN OUR AREA *****  
 
CITY SKY/WX TMP DP RH WIND PRES REMARKS
 
WALHALLA FAIR 39 39 100 NE9 30.13F  
GRAFTON AIRPOR CLOUDY 45 41 87 E13 30.12S  
VALLEY CITY AR CLOUDY 46 46 100 NE14 30.00F  
CANDO CLOUDY 37 37 100 E9G17 30.10S FOG  
CAVALIER APRT CLOUDY 43 N/A N/A E10G18 30.12S  
GWINNER N/A 50 48 93 NE12 29.95S  
SHEYENNE NWR N/A 55 51 85 E12 29.95S  
ROLLA FOG 36 36 100 E12G18 30.09S VSB 1/4  
***** THE ABOVE OBSERVATIONS ARE NON NWS ARE NOT QUALITY  
CONTROLLED AND MAY MIS-REPORT RAIN FOR SNOW...  

 
 
***** WEATHER ACROSS NORTHERN MINNESOTA *****  
 
CITY SKY/WX TMP DP RH WIND PRES REMARKS
 
FLAG ISLAND CLOUDY 39 36 87 E16G23 30.20S  
WARROAD CLOUDY 43 37 81 E17G29 30.17S  
ROSEAU CLOUDY 41 36 81 E17G25 30.15F  
HALLOCK CLOUDY 45 39 81 E16G22 30.12S  
THF RVR FALLS CLOUDY 45 42 89 E13 30.08S  
BAUDETTE CLOUDY 41 39 93 E18G26 30.18R  
WASKISH CLOUDY 41 41 100 E13G20 30.14F FOG  
CROOKSTON CLOUDY 48 45 87 E14G21 30.06S  
STEPHEN NDAWN N/A 45 39 81 E14 N/A  
GREENBUSH NDAW N/A 41 39 93 E13 N/A  

 
***** WEATHER ACROSS CENTRAL AND WEST MINNESOTA *****  
 
CITY SKY/WX TMP DP RH WIND PRES REMARKS
 
FOSSTON CLOUDY 46 45 93 E7 30.07S  
BEMIDJI CLOUDY 45 44 96 E14 30.09F  
PARK RAPIDS CLOUDY 52 48 86 E14 30.06R  
ELBOW LAKE FAIR 59 51 75 SE8 29.97F  
WADENA FAIR 57 50 77 E14 30.02F  
DETROIT LAKES FAIR 54 48 82 E10G18 30.01F  
MOORHEAD FAIR 57 50 77 E12 29.98F  
FERGUS FALLS FAIR 59 50 72 E9 29.98F  
MORRIS MN FAIR 64 52 63 CALM 29.95F  
STAPLES PTSUNNY 57 48 72 E10 30.04S  

 
***** WEATHER ELSEWHERE ACROSS MINNESOTA *****  
 
CITY SKY/WX TMP DP RH WIND PRES REMARKS
 
DULUTH CLOUDY 46 44 93 E20G31 30.17S FOG  
INTRNTL FALLS CLOUDY 40 38 93 E14G23 30.24S  
ELY CLOUDY 39 37 93 E8 30.24R FOG  
CLOQUET CLOUDY 46 45 93 E13G25 30.17R FOG  
WHEATON FAIR 57 48 72 E8 29.96F  
BRAINERD CLOUDY 54 48 80 E9 30.09R  
HIBBING CLOUDY 44 39 82 E9G24 30.19R  
ALEXANDRIA FAIR 63 50 62 E12 30.01S  
SAINT CLOUD FAIR 61 52 72 E8 30.04R  
MINNEAPOLIS FAIR 65 52 62 SE8 30.06S  

 
 
***** WEATHER ACROSS SOUTH DAKOTA *****  
 
CITY SKY/WX TMP DP RH WIND PRES REMARKS
 
SIOUX FALLS FAIR 67 53 61 S16 29.94F  
BROOKINGS FAIR 62 52 69 SE12 29.93F  
WATERTOWN FAIR 62 52 69 SE9 29.91F  
HURON FAIR 66 52 60 SE13 29.84F  
SISSETON N/A 49 48 97 NE5 29.94F  
ABERDEEN CLOUDY 48 48 100 NE13 29.91F  
MITCHELL FAIR 66 53 63 S16 29.87F  
PIERRE FAIR 55 50 83 NE16 29.84R  
MOBRIDGE CLOUDY 49 46 90 NE7 29.90R  
RAPID CITY FAIR 56 49 77 N10 29.88R  

 
 
***** SOME WEATHER IN NEARBY STATES *****  
 
CITY SKY/WX TMP DP RH WIND PRES REMARKS
 
GLASGOW MT CLOUDY 41 37 86 E15 29.95F  
GREAT FALLS MT CLOUDY 47 45 93 W3 29.93S  
CHEYENNE WY PTSUNNY 71 27 19 W9 30.10S  
SCOTTSBLUFF NE FAIR 70 37 29 NW7 29.96F  
OMAHA NE FAIR 68 53 58 S14 30.05F  
DES MOINES IA FAIR 67 58 72 SE5 30.10S  
DAVENPORT IA FAIR 65 50 58 SE6 30.20S  
CHICAGO IL FAIR 66 51 58 SE5 30.20S  
EAU CLAIRE WI FAIR 63 51 65 S7 30.12R  
LA CROSSE WI FAIR 64 52 64 S12 30.14F  

 
 
***** SOME NATIONAL WEATHER *****  
 
CITY SKY/WX TMP DP RH WIND PRES REMARKS
 
LA GUARDIA NY CLOUDY 65 52 62 NE13 30.25S  
RALEIGH NC CLOUDY 73 68 84 N6 30.15S  
ATLANTA GA PTSUNNY 84 67 56 SE8 30.11S  
NEW ORLEANS LA FAIR 88 76 67 S9 29.98R HX 99  
OKLAHOMA CITY CLOUDY 64 60 87 N12 30.05S  
ALBUQUERQUE NM FAIR 66 44 45 W6 30.24R  
SALT LAKE CITY PTSUNNY 75 38 26 S15 29.98S  
LOS ANGELES CA PTSUNNY 68 61 78 SW6 29.91S  
BOISE ID FAIR 56 42 59 W12 30.02R  
SEATTLE WA CLOUDY 54 48 80 S8 30.15R  

 
 
*** WEATHER ACROSS MANITOBA...SASKATCHEWAN AND ONTARIO ***  
***ONTARIO***  
 
CITY SKY/WX TMP DP RH WIND PRES REMARKS
 
GERALDTON MOSUNNY 36 18 48 E10 30.42R  
THUNDER BAY CLOUDY 41 36 81 E18 30.35R  
SIOUX LOOKOUT MOSUNNY 37 27 65 E10G18 30.34S  
TORONTO MOSUNNY 63 43 48 CALM 30.26F  
BIG TROUT LK SUNNY 39 18 41 NW6 30.41S  
PICKLE LAKE MOSUNNY 36 16 44 SE6 30.41S  
DRYDEN CLOUDY 37 28 70 E12G24 30.31R  
KENORA CLOUDY 36 32 87 E14G24 30.24F  

 
*** MANITOBA***  
 
CITY SKY/WX TMP DP RH WIND PRES REMARKS
 
BRANDON LGT RAIN 34 30 86 E17 30.15R WCI 23  
DAUPHIN MOSUNNY 39 28 65 E10 30.22F  
ISLAND LAKE MOSUNNY 37 18 44 S10 30.41S  
PILOT MOUND N/A 36 34 93 E14 N/A  
THE PAS CLOUDY 39 25 56 S9G17 30.27F  
THOMPSON MOSUNNY 37 18 44 SW7 30.34F  
WINNIPEG LGT RAIN 39 36 87 E9G21 30.19F  
LYNN LAKE SUNNY 39 21 48 SW9 30.24F  
CHURCHILL SUNNY 39 23 52 SW10 30.22F  
GILLAM SUNNY 39 19 45 W14 30.34S  

 
***SASKATCHEWAN***  
 
CITY SKY/WX TMP DP RH WIND PRES REMARKS
 
ESTEVAN CLOUDY 36 34 93 E15G22 30.05R  
KINDERSLEY FOG 32 32 100 SE5 29.97S VSB 1/2  
LLOYDMINSTER DRIZZLE 34 32 93 SE10 29.99F  
PRINCE ALBERT LGT SNOW 30 28 93 E12 30.15S WCI 21  
REGINA CLOUDY 34 32 93 SE14 30.07S WCI 24  
YORKTON CLOUDY 34 28 80 E13G18 30.14F WCI 25  
N. BATTLEFORD CLOUDY 32 30 93 SE15 30.06S WCI 22  
LA RONGE PTSUNNY 37 19 48 SE13 30.17F  
SASKATOON LGT SNOW 32 30 93 SE13 30.09S WCI 22  
SWIFT CURRENT CLOUDY 36 36 100 SE14 29.95F  

 
NOTE: THESE ARE AUTOMATED STATIONS WITH LIMITED QUALITY CONTROL  
"FAIR" INDICATES FEW OR NO CLOUDS BELOW 12,000 FEET WITH NO  
SIGNIFICANT WEATHER AND/OR S TO VISIBILITY
.  
SKY/WX - SKY CONDITION AND SIGNIFICANT WEATHER.  
TMP - AIR TEMPERATURE. DP - DEWPOINT TEMPERATURE.  
RH - RELATIVE HUMIDITY. PRES - PRESSURE.  
HX - HEAT INDEX. WCI - WIND CHILL INDEX.  
$  
 
 
CLICK HERE TO GO TO PREVIOUS BULLETINS.

The Nexlab ND Page
The Nexlab MN Page Main Text Page